www.pogodaiklimat.ru

Погода и климат >> Архив погоды >> Греция >> Керкира


ПОГОДА в Керкире

  • Прогноз погоды в Керкире
  • Монитор погоды в Керкире

АРХИВ ПОГОДЫ в Керкире

Время (UTC), дата Ветер
(напр.,м/с)
 
Видим.   Явления Облачность Т
(С)
Тd
(С)
f
(%)
Тe
(С)
Тes
(С)
Комфортность P
(гПа)
Po
(гПа)
Тmin
(С)
Tmax
(С)
R
(мм)
R24
(мм)
S
(см)
18 18.06 З 3
{8}
20 км 4/1 750 м
[Cu med, cong Ci fib]
+30.4 +23.2 65 +41 +41 опасность
перегрева
1012.0 1011.6 +33.0
21 18.06 штиль 0
{4}
10 км 4/1 750 м
[Cu med, cong Ci fib]
+24.6 +21.0 80 +31 +31 очень
душно
1013.0 1012.6
00 19.06 штиль 0
{4}
10 км 5/3 750 м
[Cu hum Cs]
+23.2 +21.4 90 +31 +31 очень
душно
1012.7 1012.3
03 19.06 З 2
{3}
10 км 4/3 200 м
[Frnb Ci fib]
+22.2 +20.7 91 +29 +29 очень
душно
1012.5 1011.9
06 19.06 штиль 0
{3}
20 км ясно +24.4 +20.8 80 +30 +38 очень
душно
1012.5 1012.0 +22.2 260
09 19.06 ЮВ 3
{7}
20 км 3/1 600 м
[Cu hum Ci fib]
+28.8 +19.3 56 +34 +47 очень
душно
1012.6 1012.2
12 19.06 ЮВ 4
{8}
20 км 3/1 600 м
[Cu hum Ci fib]
+30.8 +22.7 62 +40 +52 опасность
солнечного
удара
1012.2 1011.8
15 19.06 ЮЗ 3
{8}
20 км 3/1 600 м
[Cu hum Ci fib]
+30.8 +23.0 63 +41 +46 опасность
перегрева
1011.4 1011.0
18 19.06 ЮЗ 2
{6}
20 км 1/0
[Ci fib]
+28.2 +22.3 70 +37 +37 очень
душно
1011.0 1010.6 +31.6
21 19.06 ЮЗ 2
{4}
10 км 3/1 600 м
[Cu hum Ci fib]
+24.6 +20.7 79 +31 +31 очень
душно
1011.6 1011.3
00 20.06 С 1
{4}
10 км ясно +23.0 +21.2 90 +31 +31 очень
душно
1011.5 1011.1
03 20.06 ЮЗ 1
{3}
20 км 1/1 600 м
[Cu hum]
+21.2 +20.0 93 +26 +26 душно 1011.8 1011.3
06 20.06 штиль 0
{3}
20 км 1/1 300 м
[Cu hum]
+24.0 +21.0 83 +30 +37 очень
душно
1011.9 1011.5 +21.2 265
09 20.06 ЮВ 4
{6}
20 км 1/1 300 м
[Cu hum]
+28.0 +22.1 70 +36 +48 очень
душно
1012.2 1011.8
12 20.06 З 4
{7}
20 км 1/1 300 м
[Cu hum]
+30.8 +21.7 58 +39 +51 опасность
солнечного
удара
1011.8 1011.4
15 20.06 СЗ 4
{8}
20 км 1/1 300 м
[Cu hum]
+31.2 +20.1 52 +38 +42 очень
душно
1011.1 1010.7
18 20.06 СЗ 5
{9}
20 км 1/1 600 м
[Cu med, cong Ci fib]
+29.2 +19.5 56 +35 +35 очень
душно
1011.5 1011.1 +31.6
21 20.06 З 2
{7}
10 км 1/0
[Ci fib]
+25.4 +18.9 67 +30 +30 душно 1012.2 1011.8
00 21.06 штиль 0
{2}
10 км 1/0
[Ci fib]
+22.6 +19.2 81 +29 +29 очень
душно
1012.9 1012.3
03 21.06 З 2
{3}
20 км ясно +21.2 +19.0 87 +26 +26 душно 1013.0 1012.5
06 21.06 штиль 0
{3}
20 км ясно +24.4 +21.1 82 +31 +38 очень
душно
1013.9 1013.5 +20.6 255
09 21.06 ЮВ 5
{6}
20 км ясно +29.2 +20.5 59 +36 +46 очень
душно
1014.2 1013.8
12 21.06 ЮВ 4
{7}
20 км ясно +32.6 +21.1 51 +40 +54 опасность
солнечного
удара
1013.1 1012.7
15 21.06 СЗ 7
{9}
20 км ясно +33.8 +20.1 45 +40 +42 очень
душно
1012.2 1011.8
18 21.06 З 2
{8}
20 км 3/1 600 м
[Cu med, cong Ci fib]
+30.2 +19.6 53 +36 +36 очень
душно
1012.2 1011.8 +33.8
21 21.06 штиль 0
{4}
10 км ясно +25.8 +19.3 67 +31 +31 очень
душно
1013.5 1013.1
00 22.06 З 2
{3}
10 км ясно +23.4 +19.7 80 +30 +30 очень
душно
1013.5 1013.1
03 22.06 штиль 0
{3}
20 км ясно +22.4 +18.9 81 +28 +28 душно 1014.2 1013.6
06 22.06 СЗ 1
{3}
20 км 1/0
[Ci fib]
+25.6 +21.7 79 +33 +39 очень
душно
1014.5 1014.0 +21.8 265
09 22.06 ЮВ 3
{7}
20 км 3/1 1000 м
[Cu hum Ac trans Ci fib]
+29.2 +23.1 70 +39 +51 опасность
солнечного
удара
1015.3 1014.9
12 22.06 ЮВ 4
{7}
20 км 4/0
[Ci fib]
+33.8 +23.5 55 +45 +57 опасность
перегрева
1015.3 1014.9
15 22.06 З 4
{6}
20 км 4/0
[Ci]
+33.6 +21.6 50 +42 +47 опасность
перегрева
1013.9 1013.5
18 22.06 З 3
{6}
20 км 6/0
[Cs]
+29.0 +22.9 70 +39 +39 очень
душно
1013.4 1013.0 +33.8
21 22.06 З 2
{4}
10 км 5/0
[Cs]
+26.2 +21.1 74 +33 +33 очень
душно
1014.5 1014.0
00 23.06 З 2
{3}
10 км 4/0
[Cs]
+24.0 +20.3 80 +30 +30 очень
душно
1014.6 1014.2
03 23.06 З 2
{3}
20 км 4/0
[Cs]
+22.0 +18.8 82 +27 +27 душно 1014.5 1013.9
06 23.06 штиль 0
{3}
20 км 5/3 900 м
[Cu hum Ac cuf Cs]
+25.8 +21.9 79 +33 +38 очень
душно
1014.5 1014.0 +22.0 260
09 23.06 ЮВ 7
{11}
20 км 9/3 240 м
[St Ac und Cs]
+26.4 +22.9 81 +35 +37 очень
душно
1015.0 1014.6
12 23.06 В 2
{6}
20 км 9/4 1050 м
[Sc Ac und Cs]
+29.0 +21.6 64 +37 +43 очень
душно
1013.8 1013.4
15 23.06 ЮВ 3
{8}
20 км 3/1 600 м
[Cu hum Ci fib]
+31.4 +21.7 56 +40 +44 очень
душно
1013.4 1013.0
18 23.06 ЮВ 1
{9}
20 км 4/0
[Ac trans Ci fib]
+28.8 +18.3 53 +34 +34 очень
душно
1013.1 1012.7 +31.4
21 23.06 З 1
{7}
10 км 1/1 1500 м
[Cu med, cong Ac trans]
+24.6 +20.3 77 +30 +30 очень
душно
1013.3 1012.9
00 24.06 ЮЗ 1
{3}
10 км 1/0
[Ac trans]
+22.6 +20.1 86 +29 +29 очень
душно
1013.4 1012.9
03 24.06 З 2
{3}
20 км 3/3 600 м
[Cu hum]
+22.4 +20.6 90 +29 +29 очень
душно
1012.9 1012.3
06 24.06 З 2
{3}
20 км 3/1 300 м
[Cu hum Ci fib]
+25.0 +22.3 85 +33 +37 очень
душно
1012.9 1012.5 +22.2 260
09 24.06 ЮВ 2
{4}
20 км 4/1 750 м
[Cu hum Ci sp]
+29.6 +22.6 66 +39 +54 опасность
солнечного
удара
1012.7 1012.3
12 24.06 СЗ 5
{7}
20 км 4/1 750 м
[Cu med, cong Ci sp]
+32.4 +20.9 51 +40 +49 очень
душно
1012.2 1011.8
15 24.06 СЗ 9
{12}
20 км 4/3 750 м
[Cu hum Ci sp]
+30.2 +19.2 52 +36 +36 очень
душно
1011.8 1011.4
18 24.06 СЗ 7
{11}
20 км 5/0
[Ac trans Ci]
+27.6 +22.3 73 +36 +36 очень
душно
1011.9 1011.5 +32.4
21 24.06 ЮЗ 1
{7}
10 км 3/0
[Ac trans Ci fib]
+24.0 +19.7 77 +29 +29 душно 1012.0 1011.6
00 25.06 З 1
{2}
10 км ясно +23.0 +19.6 81 +30 +30 очень
душно
1011.6 1011.3
03 25.06 З 2
{3}
20 км ясно +22.0 +19.5 86 +28 +28 душно 1011.6 1011.1
06 25.06 штиль 0
{2}
20 км 3/1 600 м
[Cu hum Ac und Ci fib]
+26.4 +19.7 67 +32 +38 очень
душно
1012.2 1011.8 +22.0 260
09 25.06 нст 1
{3}
20 км 4/3 1000 м
[Sc diur, vesp Ac und]
+31.4 +17.4 43 +35 +48 очень
душно
1013.1 1012.7
12 25.06 СЗ 2
{6}
20 км 1/1 600 м
[Cu hum Ci fib]
+34.2 +20.6 45 +41 +58 опасность
перегрева
1013.6 1013.3
15 25.06 СЗ 6
{8}
20 км 1/1 600 м
[Cu hum]
+33.4 +23.7 57 +45 +47 опасность
перегрева
1013.5 1013.1

 

Местоположение метеостанции Керкира (Греция): широта 39.62 долгота 19.92 высота над уровнем моря 4 м.

В архиве по умолчанию представлена погода в Керкире за последнюю неделю. Архивные данные за месяц целиком и за предыдущие месяцы, начиная с января 2011 года, Вы можете получить, выбрав интересующий диапазон дат из раскрывающегося списка и нажав кнопку "Ввод!".


*Определитесь, кто Вы:
робот инопланетянин человек

Внимание! Время в таблицах - всемирное. Для получения местного времени необходимо прибавить поправку, которая равна 2 ч.

Смотрите также архив погоды в соседних городах и на ближайших метеорологических станциях:

Погода в Саранде (Албания) (30 км)
Погода в Гирокастре (Албания) (55 км)
Погода в Янине (Греция) (78 км)
Погода в Конице (Греция) (85 км)
Погода во Влёре (Албания) (102 км)
Погода на Сазани (Албания) (112 км)
Погода в Корке (Албания) (131 км)
Погода в Кучове (Албания) (131 км)
Погода в Актионе (Греция) (133 км)
Погода в Отранто (Италия) (134 км)

Пояснения к столбцам:

Ветер - указаны скорость ветра в м/с - средняя за 10 мин, порывы в срок и между сроками (в фигурных скобках) и направление, откуда дует ветер: С - северный, СВ - северо-восточный, В - восточный, ЮВ - юго-восточный, Ю - южный, ЮЗ - юго-западный, З - западный, СЗ - северо-западный.
Видимость - горизонтальная дальность видимости в метрах или километрах. При видимости от 1 до 10 км при отсутствии осадков обычно наблюдается дымка, при ухудшении видимости до 1 км и менее - туман. В сухую погоду видимость может ухудшаться дымом, пылью или мглою.
Явления - указаны атмосферные явления, наблюдавшиеся в срок или в последний час перед сроком; фигурными скобками обозначены явления, наблюдавшиеся между сроками (за 1-3 часа до срока); квадратными скобками обозначены град или гололедные отложения с указанием их диаметра в мм.
Облачность - указаны через наклонную черту общая и нижняя облачность в баллах и высота нижней границы облаков в метрах; квадратными скобками обозначены формы облаков: Ci - перистые, Cs - перисто-слоистые, Cc - перисто-кучевые, Ac - высококучевые, As - высокослоистые, Sc - слоисто-кучевые, Ns - слоисто-дождевые, Cu - кучевые, Cb - кучево-дождевые. Подробнее классификацию облаков см. в Атласе облаков (PDF).
T - Температура воздуха - температура, измеренная на высоте 2 м над землей.
Td - Температура точки росы - температура, при понижении до которой содержащийся в воздухе водяной пар достигнет насыщения.
f - Относительная влажность воздуха - влажноcть воздуха, измеренная на высоте 2 м над землей.
Te - Эффективная температура - температура, которую ощущает одетый по сезону человек в тени. Характеристика душности погоды. При расчете учитывается влияние влажности воздуха и скорости ветра на теплоощущения человека.
Tes - Эффективная температура на солнце - температура, которую ощущает человек, с поправкой на солнечный нагрев. Характеристика знойности погоды. Зависит от высоты солнца над горизонтом, облачности и скорости ветра. Ночью, в пасмурную погоду, а также при ветре 12 м/с и более поправка равна нулю.
P - Атмосферное давление - приведенное к уровню моря атмосферное давление.
Po - Атмосферное давление - измеренное на уровне метеостанции атмосферное давление.
Tmin - Минимальная температура - минимум температуры воздуха на высоте 2 м над землей.
Tmax - Максимальная температура - максимум температуры воздуха на высоте 2 м над землей.
R - Количество осадков - Количество выпавших осадков за период времени, мм. При наведении курсора мыши на число - период времени, за который выпало указанное количество осадков.
R24 - Количество осадков - Количество выпавших осадков за 24 часа, мм.
S - Снежный покров - Высота снежного покрова, см. При наведении курсора мыши на число - состояние снежного покрова и степень покрытия местности в баллах.